Storm Lake, IA

11:43 PM CDT on August 22, 2017 (GMT -0500)
Storm Lake Municipal

Weather History for KSLB - September, 2013

Change the Weather History Date:

Thursday, September 26, 2013

  Actual Average Record
Temperature  
Mean Temperature 72 °F -  
Max Temperature 86 °F 69 °F 95 °F (1998)
Min Temperature 57 °F 46 °F 41 °F (2000)
Cooling Degree Days 6    
Growing Degree Days 22 (Base 50)    
Moisture  
Dew Point 59 °F    
Average Humidity 71    
Maximum Humidity 100    
Minimum Humidity 35    
Precipitation  
Precipitation 0.00 in - - ()
Sea Level Pressure  
Sea Level Pressure 29.81 in    
Wind  
Wind Speed 14 mph (SSE)    
Max Wind Speed 25 mph    
Max Gust Speed 36 mph    
Visibility 8 miles    
Events      
Averages and records for this station are not official NWS values.
T = Trace of Precipitation, MM = Missing Value Source: NWS Daily Summary

Daily Weather History Graph

Daily Weather History Graph

Search for Another Location

Airport or City:

Trip Planner

Search our weather history database for the weather conditions in past years. The results will help you decide how hot, cold, wet, or windy it might be!

Date:

Astronomy

Sep. 26, 2013 Rise Set
Actual Time 7:12 AM CDT 7:10 PM CDT
Civil Twilight 6:44 AM CDT 7:38 PM CDT
Nautical Twilight 6:11 AM CDT 8:11 PM CDT
Astronomical Twilight 5:38 AM CDT 8:44 PM CDT
Moon No Moon Rise 2:12 PM CDT (9/26)
Length of Visible Light 12h 53m
Length of Day
11h 57m
Waning Gibbous, 54% of the Moon is Illuminated
Sep 26
Waning Gibbous
Sep 26
Last Quarter
Oct 4
New
Oct 11
First Quarter
Oct 18
Full

Hourly Weather History & Observations

Time (CDT) Temp. Heat Index Dew Point Humidity Pressure Visibility Wind Dir Wind Speed Gust Speed Precip Events Conditions
12:15 AM 60.8 °F - 59.0 °F 94% 29.83 in 10.0 mi SE 9.2 mph - N/A   Clear
12:35 AM 60.8 °F - 59.0 °F 94% 29.84 in 10.0 mi SE 6.9 mph - N/A   Clear
12:55 AM 60.8 °F - 59.0 °F 94% 29.84 in 8.0 mi SE 8.1 mph - N/A   Clear
1:15 AM 59.0 °F - 57.2 °F 94% 29.83 in 6.0 mi SE 8.1 mph - N/A   Clear
1:35 AM 57.2 °F - 57.2 °F 100% 29.83 in 5.0 mi SE 8.1 mph - N/A   Clear
1:55 AM 59.0 °F - 59.0 °F 100% 29.84 in 7.0 mi SE 9.2 mph - N/A   Clear
2:15 AM 59.0 °F - 59.0 °F 100% 29.83 in 6.0 mi SE 8.1 mph 16.1 mph N/A   Clear
2:35 AM 59.0 °F - 59.0 °F 100% 29.83 in 6.0 mi SSE 9.2 mph - N/A   Clear
2:55 AM 59.0 °F - 59.0 °F 100% 29.83 in 5.0 mi SSE 10.4 mph - N/A   Clear
3:15 AM 59.0 °F - 59.0 °F 100% 29.82 in 5.0 mi SSE 9.2 mph - N/A   Clear
3:35 AM 59.0 °F - 59.0 °F 100% 29.82 in 5.0 mi SSE 10.4 mph - N/A   Clear
3:55 AM 59.0 °F - 59.0 °F 100% 29.82 in 5.0 mi SE 9.2 mph 15.0 mph N/A   Clear
4:15 AM 59.0 °F - 59.0 °F 100% 29.81 in 5.0 mi SE 10.4 mph 17.3 mph N/A   Clear
4:35 AM 59.0 °F - 59.0 °F 100% 29.81 in 4.0 mi SE 9.2 mph - N/A   Clear
4:55 AM 59.0 °F - 59.0 °F 100% 29.81 in 3.0 mi SE 12.7 mph - N/A   Partly Cloudy
5:15 AM 59.0 °F - 59.0 °F 100% 29.81 in 4.0 mi SSE 13.8 mph 19.6 mph N/A   Clear
5:35 AM 59.0 °F - 59.0 °F 100% 29.82 in 4.0 mi SSE 12.7 mph 18.4 mph N/A   Clear
5:55 AM 59.0 °F - 59.0 °F 100% 29.82 in 3.0 mi SSE 11.5 mph 17.3 mph N/A   Partly Cloudy
6:15 AM 59.0 °F - 59.0 °F 100% 29.82 in - SSE 11.5 mph - N/A   Unknown
6:35 AM 59.0 °F - 59.0 °F 100% 29.83 in 3.0 mi SE 9.2 mph 16.1 mph N/A   Mostly Cloudy
6:55 AM 59.0 °F - 59.0 °F 100% 29.82 in 4.0 mi SSE 11.5 mph - N/A   Scattered Clouds
7:15 AM 60.8 °F - 60.8 °F 100% 29.83 in 3.0 mi SE 10.4 mph 18.4 mph N/A   Clear
7:35 AM 60.8 °F - 60.8 °F 100% 29.84 in 3.0 mi SE 11.5 mph 19.6 mph N/A   Partly Cloudy
7:55 AM 60.8 °F - 60.8 °F 100% 29.84 in 3.0 mi SSE 13.8 mph 20.7 mph N/A   Scattered Clouds
8:15 AM 60.8 °F - 60.8 °F 100% 29.84 in 3.0 mi SSE 16.1 mph 21.9 mph N/A   Partly Cloudy
8:35 AM 62.6 °F - 60.8 °F 94% 29.84 in 3.0 mi SSE 16.1 mph 25.3 mph N/A   Clear
8:55 AM 62.6 °F - 62.6 °F 100% 29.84 in 4.0 mi SSE 16.1 mph 23.0 mph N/A   Partly Cloudy
9:15 AM 64.4 °F - 62.6 °F 94% 29.84 in 5.0 mi SSE 13.8 mph 26.5 mph N/A   Clear
9:35 AM 66.2 °F - 62.6 °F 88% 29.84 in 7.0 mi SSE 18.4 mph 27.6 mph N/A   Clear
9:55 AM 68.0 °F - 62.6 °F 83% 29.84 in 10.0 mi SSE 19.6 mph 31.1 mph N/A   Clear
10:15 AM 69.8 °F - 60.8 °F 73% 29.83 in 10.0 mi SSE 24.2 mph 34.5 mph N/A   Clear
10:35 AM 71.6 °F - 60.8 °F 69% 29.83 in 10.0 mi SSE 20.7 mph 31.1 mph N/A   Clear
10:55 AM 71.6 °F - 60.8 °F 69% 29.83 in 10.0 mi SSE 20.7 mph 29.9 mph N/A   Clear
11:15 AM 75.2 °F - 59.0 °F 57% 29.82 in 10.0 mi SSE 24.2 mph 33.4 mph N/A   Clear
11:35 AM 75.2 °F - 59.0 °F 57% 29.82 in 10.0 mi SSE 21.9 mph 32.2 mph N/A   Clear
11:55 AM 77.0 °F - 57.2 °F 50% 29.82 in 10.0 mi South 25.3 mph 33.4 mph N/A   Clear
12:15 PM 78.8 °F - 57.2 °F 47% 29.82 in 10.0 mi SSE 21.9 mph 33.4 mph N/A   Clear
12:35 PM 78.8 °F - 57.2 °F 47% 29.81 in 10.0 mi South 24.2 mph 31.1 mph N/A   Clear
12:55 PM 80.6 °F 80.8 °F 57.2 °F 45% 29.81 in 10.0 mi SSE 20.7 mph 33.4 mph N/A   Clear
1:15 PM 80.6 °F 80.8 °F 57.2 °F 45% 29.80 in 10.0 mi SSE 23.0 mph 34.5 mph N/A   Clear
1:35 PM 82.4 °F 82.0 °F 57.2 °F 42% 29.79 in 10.0 mi SSE 21.9 mph 33.4 mph N/A   Clear
1:55 PM 82.4 °F 81.7 °F 55.4 °F 39% 29.79 in 10.0 mi SSE 23.0 mph 29.9 mph N/A   Clear
2:15 PM 84.2 °F 83.0 °F 55.4 °F 37% 29.78 in 10.0 mi SSE 25.3 mph 33.4 mph N/A   Clear
2:35 PM 84.2 °F 83.0 °F 55.4 °F 37% 29.78 in 10.0 mi South 20.7 mph 34.5 mph N/A   Clear
2:55 PM 84.2 °F 83.0 °F 55.4 °F 37% 29.78 in 10.0 mi South 23.0 mph 32.2 mph N/A   Clear
3:15 PM 84.2 °F 83.0 °F 55.4 °F 37% 29.78 in 10.0 mi SSE 23.0 mph 33.4 mph N/A   Clear
3:35 PM 86.0 °F 84.5 °F 55.4 °F 35% 29.78 in 10.0 mi SSE 21.9 mph 32.2 mph N/A   Clear
3:55 PM 86.0 °F 84.5 °F 55.4 °F 35% 29.77 in 10.0 mi South 20.7 mph 35.7 mph N/A   Clear
4:15 PM 84.2 °F 83.0 °F 55.4 °F 37% 29.77 in 10.0 mi SSE 23.0 mph 32.2 mph N/A   Clear
4:35 PM 84.2 °F 83.0 °F 55.4 °F 37% 29.77 in 10.0 mi SSE 19.6 mph 32.2 mph N/A   Clear
4:55 PM 84.2 °F 83.0 °F 55.4 °F 37% 29.77 in 10.0 mi SSE 19.6 mph 31.1 mph N/A   Clear
5:15 PM 84.2 °F 83.0 °F 55.4 °F 37% 29.77 in 10.0 mi SSE 20.7 mph 33.4 mph N/A   Clear
5:35 PM 82.4 °F 82.0 °F 57.2 °F 42% 29.77 in 10.0 mi SSE 23.0 mph 32.2 mph N/A   Clear
5:55 PM 82.4 °F 82.0 °F 57.2 °F 42% 29.78 in 10.0 mi SSE 20.7 mph - N/A   Clear
6:15 PM 80.6 °F 80.8 °F 57.2 °F 45% 29.78 in 10.0 mi SSE 17.3 mph 29.9 mph N/A   Clear
6:35 PM 80.6 °F 80.8 °F 57.2 °F 45% 29.78 in 10.0 mi SSE 17.3 mph 24.2 mph N/A   Clear
6:55 PM 78.8 °F - 57.2 °F 47% 29.78 in 10.0 mi SSE 16.1 mph 26.5 mph N/A   Clear
7:15 PM 77.0 °F - 57.2 °F 50% 29.78 in 10.0 mi SSE 16.1 mph 25.3 mph N/A   Clear
7:35 PM 77.0 °F - 59.0 °F 54% 29.79 in 10.0 mi SSE 13.8 mph 23.0 mph N/A   Clear
7:55 PM 75.2 °F - 59.0 °F 57% 29.79 in 10.0 mi SE 13.8 mph 20.7 mph N/A   Clear
8:15 PM 75.2 °F - 59.0 °F 57% 29.80 in 10.0 mi SSE 18.4 mph - N/A   Clear
8:35 PM 73.4 °F - 57.2 °F 57% 29.81 in 10.0 mi SSE 16.1 mph 23.0 mph N/A   Clear
8:55 PM 73.4 °F - 59.0 °F 61% 29.82 in 10.0 mi SSE 13.8 mph 20.7 mph N/A   Clear
9:15 PM 73.4 °F - 59.0 °F 61% 29.82 in 10.0 mi SSE 16.1 mph 23.0 mph N/A   Clear
9:35 PM 71.6 °F - 59.0 °F 64% 29.83 in 10.0 mi SSE 12.7 mph 19.6 mph N/A   Clear
9:55 PM 71.6 °F - 59.0 °F 64% 29.84 in 10.0 mi SSE 13.8 mph 19.6 mph N/A   Clear
10:15 PM 71.6 °F - 59.0 °F 64% 29.85 in 10.0 mi SSE 11.5 mph - N/A   Clear
10:35 PM 69.8 °F - 59.0 °F 68% 29.85 in 10.0 mi SSE 15.0 mph - N/A   Clear
10:55 PM 69.8 °F - 60.8 °F 73% 29.85 in 10.0 mi SSE 13.8 mph - N/A   Clear
11:15 PM 69.8 °F - 60.8 °F 73% 29.85 in 10.0 mi SSE 12.7 mph - N/A   Clear
11:35 PM 69.8 °F - 60.8 °F 73% 29.85 in 10.0 mi SSE 13.8 mph - N/A   Clear
11:55 PM 69.8 °F - 60.8 °F 73% 29.86 in 10.0 mi SSE 13.8 mph 21.9 mph N/A   Clear